Location: Hains Lake
(37.8540°N, 99.8578°W)
Time: 08:02:43
(UTC+00:00)

Vanguard 3 - Pass Details

Date: 23 April 2021
Orbit: 508 x 3262 km, 33.3° (Epoch: 09 May)

Event Time Altitude Azimuth Distance (km) Brightness Sun altitude
Exits shadow 10:48:44 20° 238° (WSW) 1,216 7.4 -12.6°
Maximum altitude 10:50:23 28° 195° (SSW) 960 7.2 -12.3°
Drops below altitude 10° 10:53:40 10° 134° (SE) 1,770 9.2 -11.7°
Sets 10:56:14 0° 122° (ESE) 2,803 10.4 -11.3°
